Regional Weather Roundup
Issued by NWS

Home | Current Version | Previous Version | Text Only | Print | Product List | Glossary On
Versions: 1 2 3 4 5 6 7 8 9 10 11 12 13 14 15 16 17 18 19 20 21 22 23 24 25 26 27 28 29 30 31 32 33 34 35 36 37 38 39 40 41 42 43 44 45 46 47 48 49 50
000
ASUS43 KMPX 281001
RWRMN
WEATHER ROUNDUP FOR MINNESOTA
NATIONAL WEATHER SERVICE TWIN CITIES/CHANHASSEN MN
500 AM CDT WED SEP 28 2016


NOTE: "FAIR" INDICATES FEW OR NO CLOUDS BELOW 12,000 FEET WITH NO
SIGNIFICANT WEATHER AND/OR OBSTRUCTIONS TO VISIBILITY. N/A MEANS
CURRENT SKY AND/OR WEATHER CONDITIONS ARE NOT AVAILABLE.

MNZ060>063-068>070-281100-
   Twin Cities Metro

CITY           SKY/WX    TMP DP  RH WIND       PRES   REMARKS
TWIN CITIES    CLOUDY    51  46  83 N12       29.99R
ST PAUL        CLOUDY    51  46  83 NW12      30.00R
CRYSTAL        PTCLDY    49  44  83 NW7       29.99R
BLAINE         PTCLDY    50  48  93 NW9       30.00R
LAKEVILLE      CLOUDY    48  48 100 NW7       29.99R
EDEN PRAIRIE   CLOUDY    51  46  83 N9        29.99R
LAKEVILLE      CLOUDY    48  48 100 NW7       29.99R
SOUTH ST PAUL  CLOUDY    51  46  84 N10       29.98R
LAKE ELMO      CLOUDY    50  46  87 N9        29.99R
$$
MNZ001>005-007-008-013>017-022>024-027-028-281100-
   Northwest Minnesota

CITY           SKY/WX    TMP DP  RH WIND       PRES   REMARKS
BEMIDJI        CLOUDY    47  46  96 N5        30.11R
HALLOCK        CLOUDY    41  39  93 NE5       30.16R
ROSEAU         MOCLDY    46  43  87 N3        30.15R
WARROAD        CLOUDY    46  43  87 N6        30.15R
THIEF RVR FALL   N/A     46  43  89 NE8       30.15R
CROOKSTON      CLOUDY    41  39  93 NE6       30.14S
FOSSTON        CLOUDY    43  41  93 NW6       30.13R
DETROIT LAKES  CLOUDY    45  45 100 NE9       30.11R
MOORHEAD       CLOUDY    39  37  93 N3        30.13R
PARK RAPIDS    CLOUDY    48  44  86 N8        30.09R
MAHNOMEN       CLOUDY    43  41  94 N7        30.12R
$$
MNZ006-009>011-018-025>026-281100-
   North Central Minnesota

CITY           SKY/WX    TMP DP  RH WIND       PRES   REMARKS
BAUDETTE       MOCLDY    48  45  89 N6        30.13R
FLAG ISLAND    MOCLDY    52  48  87 N7        30.13R
INTL FALLS     PTCLDY    50  48  93 N7        30.10R
WASKISH        CLOUDY    46  45  93 NE6       30.11R
BIG FORK       CLOUDY    50  46  87 N5        30.09R
GRAND RAPIDS   LGT RAIN  49  48  97 N7        30.09R
COOK           CLOUDY    48  46  93 CALM      30.07R
WALKER         PTSUNNY   45  44  96 NW5       30.09R
$$
MNZ012-019>021-037-281100-
   Northeast Minnesota

CITY           SKY/WX    TMP DP  RH WIND       PRES   REMARKS
DULUTH         MOCLDY    51  49  92 N9        30.00R
ELY            CLEAR     48  46  93 CALM      30.04R
HIBBING        PTCLDY    46  45  96 N8        30.05R
EVELETH        MOCLDY    52  49  89 N6        30.05R
DULUTH HARBOR  CLOUDY    55  52  88 N15       30.00R
TWO HARBORS    CLEAR     54  48  82 N7        29.98R
SILVER BAY     CLEAR     52  48  87 N3        29.98R
GRAND MARAIS     N/A     55  47  74 N10G22    29.98R
G MARAIS ARPRT MOCLDY    48  43  81 N10G21    30.01R
$$
MNZ029>031-032-039>041-046>048-054>057-064-281100-
   West Central Minnesota

CITY           SKY/WX    TMP DP  RH WIND       PRES   REMARKS
FERGUS FALLS   CLOUDY    39  39 100 CALM      30.13R
MORRIS         CLOUDY    45  43  93 NW6       30.08R
ALEXANDRIA     CLOUDY    46  45  96 NE10      30.09R
ELBOW LAKE     CLOUDY    43  42  96 NW6       30.09R
GLENWOOD       CLOUDY    46  45  93 N7        30.08R
BENSON         CLOUDY    46  43  87 NE7       30.08R
ORTONVILLE     CLOUDY    43  39  87 CALM      30.10R
MADISON        CLOUDY    45  43  93 NW5       30.09R
WILLMAR        CLOUDY    48  46  93 N7        30.08R
$$
MNZ033>034-036-042>043-049>051-058-059-281100-
   Central Minnesota

CITY           SKY/WX    TMP DP  RH WIND       PRES   REMARKS
ST CLOUD       CLOUDY    49  47  93 N9        30.04R
SAUK CENTRE    CLOUDY    47  45  90 N6        30.07R
PAYNESVILLE    CLOUDY    48  48 100 N10G16    30.06R
AITKIN         CLOUDY    52  46  82 NW6       30.04R
PINE RIVER     CLOUDY    50  46  87 N7        30.10R
BRAINERD       PTCLDY    48  46  93 N7        30.06R
STAPLES        CLOUDY    46  46 100 N5        30.08R
LONG PRAIRIE   CLOUDY    46  43  87 NW8       30.08R
LITTLE FALLS   CLOUDY    48  45  87 N3        30.06R
LITCHFIELD     CLOUDY    50  46  87 N8        30.05R
BUFFALO        CLEAR     47  45  91 NW6       30.03R
MAPLE LAKE     CLEAR     48  46  95 NW7       30.04R
HUTCHINSON     CLOUDY    50  47  88 N12       30.04R
$$
MNZ037-044-045-052-053-281100-
   East Central Minnesota

CITY           SKY/WX    TMP DP  RH WIND       PRES   REMARKS
PRINCETON      CLEAR     48  46  93 NW6       30.02R
MORA           CLOUDY    50  46  87 N6        30.03R
CAMBRIDGE      CLOUDY    54  45  71 N9        29.99R
MOOSE LAKE     PTCLDY    48  45  87 N7        30.00R
HINCKLEY       CLOUDY    50  48  93 NW7       30.00R
CLOQUET        CLEAR     46  45  93 N7        30.01R
MCGREGOR       CLOUDY    50  46  87 N9        30.04R
$$
MNZ071>073-080-081-089-090-097-098-281100-
   Southwest Minnesota

CITY           SKY/WX    TMP DP  RH WIND       PRES   REMARKS
MONTEVIDEO     CLOUDY    45  43  93 N5        30.10R
GRANITE FALLS  CLOUDY    47  44  89 NW6       30.09R
CANBY          CLEAR     44  42  92 NW6       30.10R
MARSHALL       CLOUDY    44  42  93 N6        30.08R
REDWOOD FALLS  CLOUDY    48  43  82 N7        30.06R
OLIVIA         CLOUDY    48  45  87 N6        30.06R
PIPESTONE      CLOUDY    46  43  87 N6        30.06R
WINDOM         CLOUDY    46  43  87 N13G20    30.04R
WORTHINGTON    CLOUDY    45  43  93 N9        30.06R
JACKSON        CLOUDY    46  41  81 N12       30.03R
TRACY          CLOUDY    46  44  92 N7        30.07R
$$
MNZ065>067-074>077-082>085-091>093-281100-
   South Central Minnesota

CITY           SKY/WX    TMP DP  RH WIND       PRES   REMARKS
MANKATO        CLOUDY    49  45  86 N12       30.02R
ST JAMES       CLOUDY    48  45  87 NW7       30.04R
FAIRMONT       CLOUDY    48  44  86 N14       30.02R
GLENCOE        MOCLDY    49  47  94 NW5       30.02R
FARIBAULT      CLOUDY    50  46  87 NW7       29.99R
OWATONNA       CLOUDY    50  45  81 NW9       29.98R
WASECA         CLOUDY    50  45  81 N6        30.01R
ALBERT LEA     CLOUDY    50  45  81 N6        29.98R
$$
MNZ078>079-086>088-094>096-281100-
   Southeast Minnesota

CITY           SKY/WX    TMP DP  RH WIND       PRES   REMARKS
ROCHESTER      CLOUDY    49  47  93 N13       29.95R
RED WING       CLOUDY    52  46  82 N3        29.95R
DODGE CENTER   CLOUDY    48  46  93 N12G17    29.96R
WINONA         CLOUDY    52  46  82 NW8       29.92R
AUSTIN         CLOUDY    48  45  87 NW9       29.96R
PRESTON        CLOUDY    47  45  91 N10       29.93R
$$
ABBREVIATIONS USED IN REMARKS
   TC - TEMPERATURES IN CELSIUS
  WCI - WIND CHILL INDEX
   HX - HEAT INDEX
  VSB - VISIBILITY
$$



USA.gov is the U.S. government's official web portal to all federal, state and local government web resources and services.